カタログに戻る

STARLINK-11614

運用中通信VLEO
NORAD 63270·PAYLOAD·🇺🇸 United States

打ち上げ Mar 15, 2025 から Cape Canaveral Space Force Station

Loading…

次のパス (今後24時間)

TLE

最新Source: CelesTrak SupGP

元期: Sep 15, 2026, 02:19 UTC

1 63270C 25053F   26258.09701389 -.00041400  00000+0 -32136-3 0  2589
2 63270  43.0011  50.7285 0001635 271.4672 184.0050 15.70873306    19

AllMySatでSTARLINK-11614をリアルタイム追跡

Download on the App Store